Volver al catálogo

FENGYUN 1C DEB

ActivoSSO
NORAD 46468·DEBRIS·🇨🇳 China

Lanzado May 10, 1999 desde Taiyuan Satellite Launch Center

Loading…

Próximos Pases (próximas 24 horas)

TLE

ActualizadoSource: Space-Track

Época: Sep 14, 2026, 11:56 UTC

1 46468U 99025EZK 26257.49760730  .00002607  00000-0  10843-2 0  9994
2 46468  98.8805 353.8718 0045156 153.1196 266.9305 14.26710543777465

Sigue FENGYUN 1C DEB en tiempo real con AllMySat

Download on the App Store